VA3XLC Weather Reports


time (UTC)temp
C
wind
direction
speed
KPH
gust
KPH
rain 1hr
cm
rain 24hr
cm
rain mn
cm
humidity
%
barometer
mb
20260507050750 5 254 3.2 4.8 0.00 0.00 0.00 67 979.9
20260507050248 5 209 1.6 4.8 0.00 0.00 0.00 67 979.9
20260507045748 5 231 4.8 9.7 0.00 0.00 0.00 66 979.9
20260507045249 6 194 1.6 1.6 0.00 0.00 0.00 66 979.9
20260507044748 6 240 3.2 8.0 0.00 0.00 0.00 65 980.0
20260507044248 6 213 1.6 3.2 0.00 0.00 0.00 64 980.0
20260507043747 6 246 4.8 8.0 0.00 0.00 0.00 63 980.0
20260507043247 6 215 3.2 3.2 0.00 0.00 0.00 62 980.1
20260507042225 5 237 3.2 3.2 0.00 0.00 0.00 63 980.1
20260507041724 5 228 3.2 4.8 0.00 0.00 0.00 64 980.2
20260507041224 5 201 1.6 3.2 0.00 0.00 0.00 66 980.1
20260507040202 5 208 1.6 3.2 0.00 0.00 0.00 65 980.1
20260507035702 5 233 1.6 4.8 0.00 0.00 0.00 65 980.1
20260507035201 5 0 0.0 0.0 0.00 0.00 0.00 67 980.2
20260507034701 5 221 1.6 3.2 0.00 0.00 0.00 68 980.2
20260507033639 5 0 0.0 0.0 0.00 0.00 0.00 66 980.1
20260507033139 5 220 1.6 3.2 0.00 0.00 0.00 65 980.2
20260507032116 5 0 0.0 0.0 0.00 0.00 0.00 68 980.2
20260507031615 5 0 0.0 0.0 0.00 0.00 0.00 67 980.3
20260507031115 5 0 0.0 0.0 0.00 0.00 0.00 68 980.3
20260507030054 5 0 0.0 0.0 0.00 0.00 0.00 67 980.4
20260507025554 5 0 0.0 0.0 0.00 0.00 0.00 67 980.3
20260507025053 5 0 0.0 0.0 0.00 0.00 0.00 67 980.3
20260507024030 5 0 0.0 0.0 0.00 0.00 0.00 65 980.2
20260507023530 5 193 1.6 3.2 0.00 0.00 0.00 64 980.2
20260507022507 5 0 0.0 0.0 0.00 0.00 0.00 65 980.3
20260507021445 5 0 0.0 0.0 0.00 0.00 0.00 66 980.3
20260507020945 5 0 0.0 0.0 0.00 0.00 0.00 63 980.2
20260507015402 5 0 0.0 0.0 0.00 0.00 0.00 64 980.3
20260507014902 5 0 0.0 0.0 0.00 0.00 0.00 63 980.2
20260507013840 5 0 0.0 0.0 0.00 0.00 0.00 59 980.2
20260507012819 5 215 0.0 1.6 0.00 0.00 0.00 60 980.2
20260507012319 6 0 0.0 0.0 0.00 0.00 0.00 59 980.2
20260507011818 6 0 0.0 0.0 0.00 0.00 0.00 60 980.2
20260507011317 6 0 0.0 0.0 0.00 0.00 0.00 59 980.3
20260507010256 6 255 1.6 3.2 0.00 0.00 0.00 55 980.4
20260507005756 6 229 1.6 3.2 0.00 0.00 0.00 53 980.3
20260507005256 6 219 3.2 3.2 0.00 0.00 0.00 52 980.3
20260507004755 6 238 1.6 3.2 0.00 0.00 0.00 51 980.2
20260507004255 7 246 3.2 3.2 0.00 0.00 0.00 50 980.3
20260507003755 7 269 1.6 3.2 0.00 0.00 0.00 50 980.2
20260507003254 7 262 3.2 3.2 0.00 0.00 0.00 49 980.1
20260507002754 7 258 1.6 3.2 0.00 0.00 0.00 48 980.1
20260507002254 7 275 1.6 1.6 0.00 0.00 0.00 47 980.0
20260507001754 7 310 3.2 4.8 0.00 0.00 0.00 47 980.0
20260507001254 7 302 3.2 4.8 0.00 0.00 0.00 45 979.9
20260507000754 8 325 3.2 4.8 0.00 0.00 0.00 44 979.8
20260507000253 8 332 6.4 8.0 0.00 0.00 0.00 43 979.7
20260506235231 8 338 4.8 8.0 0.00 0.00 0.00 43 979.7
20260506233649 8 326 6.4 9.7 0.00 0.00 0.00 42 979.8
20260506233148 8 334 4.8 8.0 0.00 0.00 0.00 42 979.8
20260506232647 8 333 9.7 11.3 0.00 0.00 0.00 41 979.7
20260506231626 8 10 6.4 14.5 0.00 0.00 0.00 41 979.8
20260506225522 9 332 11.3 14.5 0.00 0.00 0.00 40 979.8
20260506225021 9 352 11.3 12.9 0.00 0.00 0.00 38 979.8
20260506224521 9 317 6.4 12.9 0.00 0.00 0.00 40 979.9
20260506224021 8 340 8.0 11.3 0.00 0.00 0.00 40 979.9
20260506223520 8 317 8.0 12.9 0.00 0.00 0.00 40 979.9
20260506222459 8 352 8.0 11.3 0.00 0.00 0.00 40 979.9
20260506221959 8 332 4.8 9.7 0.00 0.00 0.00 41 979.9
20260506221458 8 340 12.9 16.1 0.00 0.00 0.00 40 979.9
20260506220958 8 336 11.3 20.9 0.00 0.00 0.00 40 979.8
20260506220458 9 337 11.3 12.9 0.00 0.00 0.00 38 979.8
20260506215958 9 309 11.3 14.5 0.00 0.00 0.00 38 979.8
20260506215457 9 352 6.4 12.9 0.00 0.00 0.00 39 979.7
20260506214957 8 345 11.3 17.7 0.00 0.00 0.00 38 979.6
20260506214457 8 3 6.4 12.9 0.00 0.00 0.00 39 979.5
20260506213957 9 331 6.4 11.3 0.00 0.00 0.00 38 979.5
20260506212935 8 331 8.0 14.5 0.00 0.00 0.00 38 979.5
20260506212435 9 339 11.3 17.7 0.00 0.00 0.00 37 979.5
20260506211414 8 9 8.0 14.5 0.00 0.00 0.00 40 979.5
20260506210913 8 350 9.7 17.7 0.00 0.00 0.00 40 979.5
20260506210412 8 11 8.0 14.5 0.00 0.00 0.00 43 979.3
20260506205912 8 359 9.7 12.9 0.00 0.00 0.00 43 979.3
20260506204850 8 340 9.7 14.5 0.00 0.00 0.00 43 979.2
20260506204350 8 349 14.5 19.3 0.00 0.00 0.00 43 979.2
20260506203849 8 341 12.9 16.1 0.00 0.00 0.00 45 979.2
20260506203349 8 338 12.9 19.3 0.00 0.00 0.00 46 979.2
20260506202849 8 341 11.3 17.7 0.00 0.00 0.00 47 979.3
20260506202348 8 323 11.3 14.5 0.00 0.00 0.00 47 979.3
20260506201326 8 334 11.3 14.5 0.00 0.00 0.00 48 979.3
20260506200826 8 350 8.0 14.5 0.00 0.00 0.00 49 979.3
20260506195805 8 347 12.9 16.1 0.00 0.00 0.00 48 979.3
20260506195306 8 348 8.0 14.5 0.00 0.00 0.00 49 979.3
20260506194804 8 351 8.0 12.9 0.00 0.00 0.00 49 979.2
20260506194304 8 336 6.4 9.7 0.00 0.00 0.00 49 979.2
20260506193803 8 2 8.0 14.5 0.00 0.00 0.00 50 979.2
20260506193303 8 317 14.5 22.5 0.00 0.00 0.00 48 979.1
20260506192803 8 341 16.1 20.9 0.00 0.00 0.00 47 979.2
20260506192305 8 353 9.7 12.9 0.00 0.00 0.00 49 979.1
20260506191803 8 343 12.9 17.7 0.00 0.00 0.00 49 979.1
20260506191302 8 348 11.3 16.1 0.00 0.00 0.00 50 979.1
20260506190801 8 355 9.7 14.5 0.00 0.00 0.00 50 979.3
20260506190300 8 338 14.5 17.7 0.00 0.00 0.00 49 979.3
20260506185800 8 333 12.9 19.3 0.00 0.00 0.00 50 979.2
20260506185300 8 345 11.3 19.3 0.00 0.00 0.00 50 979.3
20260506184800 8 347 14.5 19.3 0.00 0.00 0.00 50 979.3
20260506184259 8 340 12.9 19.3 0.00 0.00 0.00 50 979.2
20260506183759 8 343 14.5 24.1 0.00 0.00 0.00 51 979.0
20260506183259 8 334 12.9 17.7 0.00 0.00 0.00 51 979.0
20260506182759 8 322 11.3 14.5 0.00 0.00 0.00 51 978.9
20260506182258 8 323 14.5 19.3 0.00 0.00 0.00 50 978.8
20260506181757 9 333 11.3 20.9 0.00 0.00 0.00 50 978.6
20260506181257 9 333 12.9 19.3 0.00 0.00 0.00 49 978.6
20260506180757 9 8 6.4 14.5 0.00 0.00 0.00 49 978.5
20260506180256 9 336 12.9 16.1 0.00 0.00 0.00 49 978.4
20260506175755 9 338 9.7 19.3 0.00 0.00 0.00 50 978.4
20260506175255 9 340 8.0 12.9 0.00 0.00 0.00 49 978.3
20260506174755 9 6 9.7 19.3 0.00 0.00 0.00 50 978.4
20260506174255 10 0 12.9 19.3 0.00 0.00 0.00 51 978.5
20260506172712 10 16 11.3 17.7 0.00 0.00 0.00 49 978.4
20260506172212 10 343 9.7 14.5 0.00 0.00 0.00 52 978.3
20260506171151 10 353 9.7 14.5 0.00 0.00 0.00 51 978.4
20260506170650 10 344 14.5 19.3 0.00 0.00 0.00 52 978.2
20260506170150 10 337 9.7 17.7 0.00 0.00 0.00 53 978.3
20260506165129 10 346 12.9 20.9 0.00 0.00 0.00 52 978.5
20260506164628 10 351 8.0 12.9 0.00 0.00 0.00 55 978.4
20260506164128 10 339 12.9 17.7 0.00 0.00 0.00 56 978.6
20260506163627 10 346 12.9 19.3 0.00 0.00 0.00 56 978.6
20260506163127 9 18 11.3 19.3 0.00 0.00 0.00 57 978.6
20260506162627 9 339 17.7 24.1 0.00 0.00 0.00 57 978.3
20260506162126 9 342 14.5 19.3 0.00 0.00 0.00 57 978.3
20260506161626 9 338 12.9 20.9 0.00 0.00 0.00 60 978.3
20260506160605 9 353 9.7 14.5 0.00 0.00 0.00 61 978.4
20260506160104 9 12 11.3 17.7 0.00 0.00 0.00 62 978.2
20260506155043 9 335 12.9 17.7 0.00 0.00 0.00 64 978.2
20260506154543 9 333 9.7 17.7 0.00 0.00 0.00 65 978.2
20260506154042 9 347 8.0 16.1 0.00 0.00 0.00 66 978.3
20260506153542 9 9 8.0 11.3 0.00 0.00 0.00 67 978.2
20260506153041 9 347 14.5 20.9 0.00 0.00 0.00 66 978.1
20260506152540 9 11 6.4 14.5 0.00 0.00 0.00 68 978.1
20260506152040 8 0 11.3 16.1 0.00 0.00 0.00 71 978.1
20260506151540 8 326 14.5 19.3 0.00 0.00 0.00 71 978.2
20260506151040 8 300 12.9 17.7 0.00 0.00 0.00 72 978.0
20260506150539 8 332 9.7 14.5 0.00 0.00 0.00 73 978.0
20260506145518 8 341 9.7 16.1 0.00 0.00 0.00 73 977.7
20260506145018 8 345 9.7 12.9 0.00 0.00 0.00 72 977.6
20260506143956 8 340 14.5 19.3 0.00 0.00 0.00 73 977.6
20260506143456 8 331 11.3 14.5 0.00 0.00 0.00 74 977.4
20260506142435 8 345 9.7 12.9 0.00 0.00 0.00 77 977.3
20260506141934 7 310 6.4 9.7 0.00 0.00 0.00 79 977.3
20260506141434 7 315 8.0 11.3 0.00 0.00 0.00 81 977.2
20260506140934 7 337 8.0 9.7 0.00 0.00 0.00 82 977.1
20260506140434 7 331 6.4 11.3 0.00 0.00 0.00 82 976.9
20260506135933 6 325 6.4 12.9 0.00 0.00 0.00 83 977.0
20260506134912 6 349 8.0 14.5 0.00 0.00 0.00 84 977.0
20260506134412 6 354 4.8 8.0 0.00 0.00 0.00 84 977.1
20260506133351 6 302 3.2 4.8 0.00 0.00 0.00 85 977.1
20260506132850 6 294 6.4 9.7 0.00 0.00 0.00 85 977.1
20260506132350 6 333 4.8 8.0 0.00 0.00 0.00 85 977.1
20260506131850 6 318 9.7 14.5 0.00 0.00 0.00 85 977.1
20260506131350 6 308 6.4 9.7 0.00 0.00 0.00 85 977.1
20260506130849 6 296 3.2 4.8 0.00 0.00 0.00 86 977.0
20260506130348 5 323 6.4 12.9 0.00 0.00 0.00 85 976.8
20260506125848 5 305 8.0 11.3 0.00 0.00 0.00 85 976.8
20260506125348 5 311 8.0 12.9 0.00 0.00 0.00 85 976.7
20260506124326 5 304 4.8 8.0 0.00 0.00 0.00 86 976.6
20260506123826 5 291 4.8 4.8 0.00 0.00 0.00 86 976.5
20260506123326 6 317 8.0 12.9 0.00 0.00 0.00 86 976.6
20260506122826 6 309 8.0 9.7 0.00 0.00 0.00 86 976.6
20260506122326 6 305 6.4 8.0 0.00 0.00 0.00 86 976.6
20260506121825 6 331 8.0 11.3 0.00 0.00 0.00 86 976.6
20260506120804 7 283 6.4 9.7 0.00 0.00 0.00 86 976.5
20260506120303 7 298 6.4 9.7 0.00 0.00 0.00 86 976.5
20260506115803 7 269 6.4 8.0 0.00 0.00 0.00 87 976.3
20260506114742 7 255 6.4 9.7 0.00 0.00 0.00 85 976.3
20260506114241 7 248 6.4 11.3 0.00 0.00 0.00 85 976.2
20260506113741 7 268 9.7 12.9 0.00 0.00 0.00 85 976.2
20260506113241 7 266 9.7 12.9 0.00 0.00 0.00 86 976.1
20260506112741 7 271 9.7 14.5 0.00 0.00 0.00 86 975.9
20260506111158 7 272 4.8 8.0 0.00 0.00 0.00 86 975.8
20260506110136 7 267 4.8 8.0 0.00 0.00 0.00 85 975.5
20260506105636 7 254 8.0 11.3 0.00 0.00 0.00 85 975.5
20260506105137 7 272 6.4 9.7 0.00 0.00 0.00 85 975.7
20260506104636 7 271 6.4 8.0 0.00 0.00 0.00 86 975.6
20260506103614 7 254 6.4 11.3 0.00 0.00 0.00 86 975.4
20260506103113 7 250 4.8 6.4 0.00 0.00 0.00 87 975.3
20260506102613 7 251 6.4 11.3 0.00 0.00 0.00 88 975.2
20260506101552 7 236 3.2 4.8 0.00 0.00 0.00 90 975.1
20260506101052 7 224 3.2 4.8 0.00 0.00 0.00 90 975.2
20260506100551 7 201 4.8 4.8 0.00 0.00 0.00 90 975.1
20260506100051 7 206 3.2 4.8 0.00 0.00 0.00 91 975.1
20260506095551 7 239 4.8 8.0 0.00 0.00 0.00 91 975.3
20260506095050 7 259 4.8 8.0 0.00 0.00 0.00 92 975.3
20260506094550 7 208 3.2 4.8 0.00 0.00 0.00 92 975.6
20260506094049 7 210 3.2 4.8 0.00 0.00 0.00 92 975.5
20260506093549 7 207 3.2 4.8 0.00 0.00 0.00 92 975.1
20260506093049 7 202 4.8 6.4 0.00 0.00 0.00 92 974.8
20260506092027 7 193 4.8 8.0 0.00 0.00 0.00 92 974.8
20260506091527 7 183 6.4 8.0 0.00 0.00 0.00 92 975.0
20260506091027 7 197 4.8 8.0 0.00 0.00 0.00 92 975.1
20260506090526 7 192 4.8 6.4 0.00 0.00 0.00 91 975.2
20260506090026 7 208 3.2 6.4 0.00 0.00 0.00 91 975.4
20260506085004 7 195 4.8 6.4 0.00 0.00 0.00 91 975.6
20260506083943 7 222 4.8 4.8 0.00 0.00 0.00 91 975.7
20260506083443 7 232 3.2 6.4 0.00 0.00 0.00 91 975.7
20260506082942 7 223 3.2 6.4 0.00 0.00 0.00 91 975.6
20260506082442 7 235 3.2 4.8 0.00 0.00 0.00 91 975.6
20260506081941 7 209 4.8 6.4 0.00 0.00 0.00 91 975.7
20260506081441 7 203 3.2 4.8 0.00 0.00 0.00 91 975.8
20260506073333 7 259 6.4 11.3 0.00 0.00 0.00 91 975.9
20260506072833 7 242 3.2 4.8 0.00 0.00 0.00 91 975.7
20260506072333 7 249 4.8 6.4 0.00 0.00 0.00 91 975.7
20260506071833 7 263 4.8 6.4 0.00 0.00 0.00 91 975.8
20260506071332 7 274 4.8 6.4 0.00 0.00 0.00 91 975.8
20260506070832 7 263 8.0 11.3 0.00 0.00 0.00 91 975.7
20260506070332 7 213 3.2 4.8 0.00 0.00 0.00 91 975.6
20260506062248 7 212 4.8 8.0 0.00 0.00 0.00 91 975.5
20260506061747 7 266 6.4 11.3 0.00 0.00 0.00 92 975.5
20260506061246 7 250 4.8 6.4 0.00 0.00 0.00 92 975.6
20260506060746 7 250 6.4 11.3 0.00 0.00 0.00 92 975.6
20260506060246 8 234 4.8 8.0 0.00 0.00 0.00 92 975.6
20260506051221 8 203 3.2 6.4 0.00 0.00 0.00 91 975.7